Terminal Aerodrome Forecast
Issued by NWS Tuscon, AZ

Home | Current Version | Previous Version | Text Only | Print | Product List | Glossary On
Versions: 1 2 3 4 5 6 7 8 9 10 11 12 13 14 15
274
FTUS45 KTWC 221509 AAA
TAFDUG
TAF AMD
KDUG 221509Z 2215/2312 18016G25KT P6SM SKC
     FM222000 21023G33KT P6SM FEW090 SCT200
     FM230300 35010KT P6SM FEW090 BKN200
     FM231000 VRB04KT P6SM SCT200=

USA.gov is the U.S. government's official web portal to all federal, state and local government web resources and services.